マクノート彗星

C/2007 T1 ( McNaught )

English version
Home page
Updated on February 27, 2017

---------------------------------------------------------------------

・ プロフィール

発見日 2007年10月9日
発見光度 12.8等
発見者 R. H. McNaught (Siding Spring survey)

・ 写真集

・ 軌道要素

Epoch 2007 Dec. 6.0 TT = JDT 2454440.5
T 2007 Dec. 12.52962 TT                                 MPC
q   0.9685014            (2000.0)            P               Q
z  +0.0002585      Peri.  233.75498     -0.13224632     -0.55004723
 +/-0.0000041      Node   111.43353     -0.34619671     +0.80514443
e   0.9997496      Incl.  117.64240     -0.92879424     -0.22178930

・ 星図

・ 光度変化

        m1 = 7.5 + 5 logΔ + 12.0 log r

---------------------------------------------------------------------

軌道要素はM.P.E.C. 2008-E09に掲載されたものです。
星図はステラナビゲータ Ver.8 (アストロアーツ) で作成したものです。
光度グラフはComet for Windowsで作成したものです。

---------------------------------------------------------------------

Copyright(C) Seiichi Yoshida (comet@aerith.net). All rights reserved.